QPF
0.15 0.15 0.10 0.08 0.07 0.09 0.07 0.05 0.03 0.02 0.02 0.02 0.01 0.00 0.00 0.00 0.00 0.01 0.01 0.02 0.04 0.06 0.05 0.04 0.03 0.04 0.04 0.04 0.03 0.03 0.02 0.03 0.04 0.04 0.03 0.04 0.06 0.06 0.05 0.03 0.02 0.02 0.03
0.15 0.18 0.15 0.14 0.13 0.13 0.10 0.07 0.05 0.05 0.04 0.02 0.01 0.01 0.01 0.00 0.00 0.01 0.01 0.01 0.03 0.04 0.04 0.04 0.04 0.03 0.04 0.03 0.03 0.02 0.02 0.03 0.04 0.04 0.03 0.03 0.04 0.04 0.04 0.03 0.01 0.02 0.03
0.12 0.16 0.18 0.18 0.15 0.17 0.16 0.13 0.09 0.07 0.06 0.03 0.02 0.01 0.01 0.01 0.01 0.01 0.01 0.01 0.01 0.02 0.02 0.03 0.04 0.04 0.03 0.03 0.03 0.02 0.02 0.02 0.03 0.03 0.03 0.03 0.03 0.03 0.02 0.01 0.01 0.02 0.02
0.07 0.11 0.14 0.15 0.15 0.15 0.16 0.17 0.16 0.12 0.09 0.06 0.04 0.03 0.03 0.02 0.01 0.01 0.01 0.01 0.01 0.01 0.01 0.03 0.04 0.04 0.04 0.04 0.04 0.03 0.02 0.03 0.03 0.03 0.03 0.03 0.02 0.02 0.01 0.01 0.01 0.02 0.02
0.04 0.07 0.10 0.11 0.15 0.16 0.16 0.16 0.17 0.16 0.14 0.10 0.08 0.05 0.03 0.02 0.02 0.01 0.01 0.02 0.03 0.02 0.01 0.02 0.03 0.03 0.04 0.04 0.03 0.03 0.03 0.02 0.02 0.02 0.02 0.02 0.02 0.02 0.02 0.02 0.02 0.02 0.02
0.03 0.04 0.07 0.10 0.13 0.13 0.15 0.16 0.17 0.19 0.16 0.14 0.12 0.08 0.06 0.05 0.04 0.03 0.03 0.03 0.03 0.02 0.02 0.02 0.02 0.02 0.03 0.03 0.03 0.03 0.03 0.01 0.01 0.01 0.02 0.02 0.02 0.02 0.01 0.02 0.01 0.02 0.02
0.01 0.03 0.05 0.08 0.10 0.11 0.13 0.18 0.18 0.19 0.17 0.16 0.13 0.10 0.07 0.06 0.05 0.04 0.04 0.04 0.03 0.02 0.02 0.02 0.02 0.01 0.01 0.02 0.02 0.02 0.03 0.03 0.02 0.01 0.02 0.03 0.02 0.02 0.01 0.01 0.01 0.01 0.01
0.01 0.02 0.02 0.04 0.07 0.09 0.12 0.14 0.16 0.15 0.17 0.17 0.14 0.13 0.10 0.07 0.04 0.04 0.04 0.04 0.04 0.03 0.03 0.02 0.02 0.01 0.01 0.01 0.01 0.01 0.02 0.02 0.03 0.03 0.03 0.03 0.03 0.01 0.01 0.01 0.02 0.01 0.01
0.00 0.01 0.01 0.02 0.04 0.07 0.10 0.14 0.15 0.16 0.16 0.18 0.16 0.13 0.09 0.06 0.05 0.04 0.04 0.04 0.04 0.04 0.04 0.04 0.03 0.03 0.03 0.01 0.01 0.01 0.01 0.02 0.02 0.02 0.03 0.03 0.02 0.02 0.01 0.01 0.02 0.02 0.02
0.02 0.02 0.01 0.01 0.03 0.05 0.08 0.12 0.17 0.17 0.18 0.17 0.17 0.15 0.09 0.06 0.05 0.04 0.04 0.05 0.05 0.04 0.04 0.04 0.04 0.03 0.04 0.02 0.02 0.01 0.01 0.01 0.02 0.02 0.02 0.03 0.03 0.02 0.02 0.02 0.02 0.02 0.02
0.03 0.03 0.02 0.02 0.03 0.04 0.06 0.08 0.13 0.16 0.16 0.14 0.15 0.16 0.14 0.09 0.05 0.04 0.03 0.03 0.04 0.04 0.04 0.05 0.05 0.05 0.04 0.04 0.03 0.03 0.02 0.02 0.02 0.03 0.04 0.04 0.04 0.04 0.04 0.03 0.03 0.03 0.03
0.04 0.03 0.02 0.03 0.04 0.04 0.04 0.06 0.11 0.15 0.16 0.16 0.15 0.13 0.12 0.11 0.08 0.05 0.03 0.03 0.05 0.04 0.04 0.05 0.05 0.05 0.05 0.06 0.06 0.06 0.05 0.05 0.04 0.03 0.05 0.06 0.05 0.05 0.05 0.04 0.03 0.03 0.03
0.03 0.03 0.04 0.04 0.03 0.03 0.04 0.05 0.08 0.13 0.14 0.17 0.18 0.15 0.13 0.11 0.10 0.09 0.08 0.05 0.05 0.04 0.05 0.05 0.06 0.06 0.05 0.06 0.07 0.10 0.07 0.06 0.05 0.05 0.06 0.06 0.06 0.05 0.04 0.04 0.04 0.04 0.03
0.03 0.03 0.04 0.05 0.04 0.03 0.04 0.05 0.05 0.07 0.11 0.13 0.15 0.17 0.17 0.15 0.12 0.10 0.09 0.08 0.06 0.04 0.04 0.05 0.05 0.06 0.07 0.07 0.08 0.09 0.08 0.09 0.09 0.08 0.06 0.06 0.07 0.07 0.05 0.04 0.04 0.05 0.05
0.02 0.03 0.03 0.04 0.04 0.03 0.03 0.03 0.03 0.05 0.07 0.09 0.11 0.14 0.16 0.16 0.16 0.14 0.12 0.10 0.09 0.07 0.04 0.04 0.05 0.06 0.08 0.09 0.10 0.09 0.08 0.10 0.10 0.11 0.11 0.10 0.09 0.08 0.06 0.04 0.03 0.03 0.03
0.03 0.04 0.05 0.05 0.05 0.05 0.04 0.04 0.05 0.05 0.08 0.09 0.11 0.12 0.14 0.15 0.15 0.16 0.16 0.14 0.12 0.10 0.08 0.06 0.05 0.07 0.09 0.09 0.09 0.09 0.09 0.11 0.10 0.09 0.09 0.10 0.10 0.09 0.08 0.05 0.04 0.02 0.01
0.03 0.04 0.04 0.05 0.08 0.08 0.08 0.08 0.08 0.08 0.08 0.09 0.09 0.09 0.09 0.10 0.13 0.15 0.18 0.19 0.18 0.15 0.11 0.08 0.07 0.07 0.08 0.09 0.08 0.07 0.08 0.08 0.08 0.08 0.08 0.08 0.07 0.06 0.08 0.08 0.07 0.04 0.02
0.02 0.03 0.04 0.05 0.08 0.11 0.09 0.08 0.09 0.10 0.08 0.09 0.11 0.10 0.09 0.09 0.10 0.12 0.16 0.17 0.15 0.12 0.11 0.10 0.09 0.08 0.09 0.09 0.09 0.09 0.08 0.07 0.07 0.07 0.07 0.08 0.09 0.08 0.09 0.09 0.08 0.07 0.05
0.02 0.03 0.05 0.06 0.05 0.09 0.10 0.07 0.08 0.10 0.10 0.10 0.13 0.13 0.13 0.11 0.09 0.08 0.09 0.11 0.13 0.12 0.10 0.11 0.13 0.12 0.11 0.10 0.10 0.09 0.10 0.10 0.10 0.10 0.10 0.09 0.10 0.11 0.11 0.12 0.11 0.10 0.08
0.02 0.02 0.03 0.06 0.05 0.06 0.10 0.08 0.06 0.08 0.09 0.09 0.10 0.13 0.15 0.13 0.10 0.10 0.09 0.10 0.12 0.13 0.12 0.12 0.13 0.14 0.14 0.12 0.11 0.09 0.10 0.10 0.11 0.11 0.12 0.12 0.11 0.11 0.11 0.10 0.10 0.09 0.09
0.02 0.03 0.03 0.06 0.07 0.07 0.08 0.07 0.05 0.05 0.06 0.08 0.08 0.07 0.10 0.11 0.10 0.08 0.08 0.12 0.12 0.11 0.12 0.12 0.11 0.11 0.12 0.12 0.10 0.09 0.10 0.10 0.10 0.10 0.10 0.10 0.09 0.09 0.09 0.08 0.07 0.05 0.05
0.01 0.02 0.03 0.07 0.09 0.07 0.05 0.05 0.04 0.04 0.04 0.07 0.07 0.07 0.07 0.08 0.08 0.07 0.07 0.11 0.14 0.11 0.10 0.10 0.09 0.09 0.09 0.09 0.08 0.09 0.10 0.09 0.10 0.10 0.07 0.08 0.07 0.06 0.05 0.05 0.07 0.06 0.05
0.01 0.02 0.02 0.04 0.06 0.04 0.04 0.04 0.04 0.04 0.05 0.06 0.06 0.06 0.06 0.08 0.09 0.08 0.08 0.09 0.10 0.11 0.09 0.08 0.08 0.08 0.07 0.07 0.06 0.07 0.08 0.08 0.10 0.10 0.06 0.07 0.06 0.05 0.05 0.04 0.06 0.06 0.05
0.00 0.01 0.02 0.02 0.02 0.03 0.04 0.04 0.04 0.04 0.05 0.06 0.06 0.06 0.05 0.06 0.07 0.09 0.09 0.08 0.06 0.06 0.06 0.04 0.04 0.05 0.06 0.07 0.06 0.06 0.07 0.06 0.06 0.08 0.06 0.05 0.04 0.04 0.03 0.03 0.03 0.03 0.03
0.00 0.01 0.02 0.03 0.03 0.04 0.05 0.05 0.04 0.03 0.04 0.05 0.06 0.06 0.04 0.03 0.06 0.09 0.07 0.07 0.05 0.05 0.05 0.05 0.04 0.04 0.06 0.07 0.07 0.06 0.06 0.07 0.06 0.07 0.06 0.04 0.03 0.03 0.02 0.02 0.01 0.02 0.02
0.02 0.02 0.03 0.03 0.03 0.02 0.04 0.04 0.03 0.02 0.03 0.03 0.04 0.05 0.05 0.03 0.04 0.08 0.07 0.05 0.04 0.04 0.04 0.03 0.04 0.04 0.05 0.07 0.08 0.08 0.07 0.07 0.08 0.08 0.05 0.04 0.03 0.03 0.02 0.02 0.01 0.01 0.01
MSLP
1014.40 1014.38 1014.36 1014.37 1014.42 1014.53 1014.72 1014.96 1015.23 1015.52 1015.77 1015.97 1016.11 1016.19 1016.21 1016.20 1016.19 1016.20 1016.24 1016.32 1016.42 1016.53 1016.64 1016.76 1016.86 1016.96 1017.06 1017.17 1017.30 1017.44 1017.61 1017.79 1017.99 1018.20 1018.43 1018.65 1018.89 1019.13 1019.36 1019.57 1019.76 1019.91 1020.02
1014.11 1014.05 1014.00 1013.98 1014.02 1014.12 1014.30 1014.55 1014.84 1015.15 1015.43 1015.66 1015.83 1015.94 1015.99 1016.00 1016.00 1016.01 1016.05 1016.12 1016.23 1016.36 1016.51 1016.66 1016.82 1016.96 1017.11 1017.26 1017.40 1017.56 1017.72 1017.89 1018.08 1018.28 1018.51 1018.75 1019.00 1019.26 1019.51 1019.75 1019.95 1020.11 1020.23
1013.86 1013.76 1013.69 1013.66 1013.69 1013.79 1013.97 1014.22 1014.52 1014.83 1015.13 1015.39 1015.58 1015.71 1015.78 1015.81 1015.82 1015.83 1015.86 1015.93 1016.04 1016.18 1016.35 1016.53 1016.73 1016.92 1017.12 1017.30 1017.47 1017.63 1017.79 1017.96 1018.14 1018.33 1018.55 1018.80 1019.06 1019.33 1019.60 1019.86 1020.08 1020.25 1020.38
1013.65 1013.52 1013.44 1013.41 1013.44 1013.55 1013.73 1013.98 1014.27 1014.59 1014.89 1015.15 1015.36 1015.51 1015.60 1015.64 1015.66 1015.67 1015.69 1015.75 1015.85 1015.99 1016.17 1016.38 1016.60 1016.84 1017.06 1017.28 1017.48 1017.66 1017.83 1017.99 1018.16 1018.36 1018.57 1018.81 1019.08 1019.35 1019.63 1019.89 1020.12 1020.31 1020.46
1013.48 1013.33 1013.24 1013.22 1013.26 1013.37 1013.56 1013.80 1014.08 1014.38 1014.67 1014.93 1015.15 1015.31 1015.42 1015.48 1015.51 1015.52 1015.54 1015.59 1015.67 1015.80 1015.98 1016.20 1016.44 1016.70 1016.96 1017.21 1017.43 1017.63 1017.81 1017.99 1018.16 1018.35 1018.56 1018.79 1019.05 1019.33 1019.60 1019.86 1020.10 1020.29 1020.45
1013.32 1013.16 1013.07 1013.04 1013.09 1013.21 1013.39 1013.62 1013.88 1014.16 1014.44 1014.70 1014.93 1015.11 1015.24 1015.32 1015.36 1015.39 1015.41 1015.45 1015.52 1015.64 1015.81 1016.02 1016.27 1016.54 1016.82 1017.08 1017.33 1017.55 1017.75 1017.94 1018.12 1018.31 1018.52 1018.76 1019.01 1019.28 1019.54 1019.79 1020.02 1020.22 1020.38
1013.17 1012.97 1012.87 1012.84 1012.89 1013.00 1013.17 1013.38 1013.63 1013.89 1014.16 1014.42 1014.66 1014.87 1015.03 1015.15 1015.23 1015.28 1015.31 1015.34 1015.40 1015.50 1015.65 1015.84 1016.08 1016.35 1016.64 1016.91 1017.18 1017.42 1017.64 1017.84 1018.04 1018.25 1018.47 1018.71 1018.96 1019.22 1019.48 1019.71 1019.92 1020.12 1020.29
1012.98 1012.75 1012.61 1012.57 1012.60 1012.70 1012.85 1013.04 1013.27 1013.52 1013.79 1014.06 1014.33 1014.58 1014.79 1014.96 1015.09 1015.17 1015.22 1015.26 1015.32 1015.40 1015.52 1015.69 1015.91 1016.16 1016.43 1016.71 1016.97 1017.23 1017.47 1017.69 1017.92 1018.15 1018.40 1018.65 1018.91 1019.17 1019.42 1019.65 1019.85 1020.03 1020.19
1012.76 1012.47 1012.29 1012.21 1012.21 1012.28 1012.41 1012.58 1012.79 1013.04 1013.31 1013.61 1013.92 1014.23 1014.50 1014.74 1014.92 1015.05 1015.13 1015.19 1015.24 1015.31 1015.41 1015.55 1015.74 1015.96 1016.21 1016.47 1016.73 1016.99 1017.24 1017.48 1017.73 1018.00 1018.28 1018.56 1018.85 1019.13 1019.39 1019.61 1019.81 1019.98 1020.14
1012.51 1012.16 1011.92 1011.79 1011.75 1011.78 1011.87 1012.01 1012.21 1012.46 1012.75 1013.09 1013.45 1013.82 1014.16 1014.47 1014.72 1014.90 1015.02 1015.10 1015.16 1015.22 1015.30 1015.41 1015.57 1015.76 1015.98 1016.22 1016.46 1016.71 1016.95 1017.21 1017.49 1017.78 1018.10 1018.43 1018.76 1019.08 1019.36 1019.60 1019.81 1019.97 1020.12
1012.29 1011.87 1011.57 1011.37 1011.27 1011.25 1011.29 1011.40 1011.58 1011.83 1012.14 1012.52 1012.93 1013.36 1013.77 1014.14 1014.45 1014.69 1014.85 1014.96 1015.03 1015.09 1015.17 1015.27 1015.40 1015.57 1015.76 1015.96 1016.18 1016.40 1016.63 1016.89 1017.18 1017.50 1017.86 1018.24 1018.62 1018.99 1019.32 1019.60 1019.82 1020.00 1020.14
1012.15 1011.66 1011.29 1011.03 1010.86 1010.77 1010.76 1010.83 1010.98 1011.22 1011.54 1011.94 1012.39 1012.86 1013.32 1013.75 1014.11 1014.39 1014.59 1014.73 1014.82 1014.90 1014.99 1015.09 1015.22 1015.37 1015.54 1015.71 1015.89 1016.09 1016.30 1016.54 1016.83 1017.16 1017.55 1017.97 1018.41 1018.84 1019.22 1019.55 1019.81 1020.02 1020.17
1012.13 1011.60 1011.17 1010.84 1010.60 1010.43 1010.36 1010.37 1010.48 1010.69 1011.00 1011.40 1011.86 1012.36 1012.84 1013.29 1013.68 1013.98 1014.21 1014.38 1014.50 1014.61 1014.72 1014.85 1015.00 1015.16 1015.32 1015.48 1015.63 1015.80 1015.97 1016.19 1016.46 1016.79 1017.20 1017.65 1018.13 1018.61 1019.06 1019.45 1019.76 1020.00 1020.18
1012.28 1011.72 1011.24 1010.85 1010.53 1010.29 1010.14 1010.09 1010.14 1010.30 1010.57 1010.95 1011.39 1011.87 1012.35 1012.79 1013.17 1013.48 1013.71 1013.90 1014.05 1014.20 1014.36 1014.53 1014.72 1014.91 1015.09 1015.25 1015.40 1015.54 1015.68 1015.86 1016.11 1016.42 1016.82 1017.29 1017.81 1018.34 1018.84 1019.28 1019.65 1019.94 1020.14
1012.60 1012.03 1011.52 1011.07 1010.69 1010.38 1010.14 1010.01 1009.99 1010.08 1010.30 1010.61 1011.01 1011.44 1011.86 1012.26 1012.61 1012.88 1013.11 1013.30 1013.48 1013.66 1013.87 1014.11 1014.36 1014.61 1014.83 1015.03 1015.19 1015.32 1015.44 1015.59 1015.80 1016.10 1016.48 1016.94 1017.47 1018.03 1018.57 1019.06 1019.48 1019.81 1020.06
1013.05 1012.49 1011.97 1011.48 1011.04 1010.66 1010.35 1010.14 1010.03 1010.05 1010.19 1010.42 1010.73 1011.08 1011.43 1011.75 1012.02 1012.24 1012.43 1012.60 1012.79 1013.00 1013.27 1013.57 1013.90 1014.23 1014.52 1014.78 1014.97 1015.12 1015.25 1015.39 1015.57 1015.84 1016.19 1016.64 1017.17 1017.73 1018.29 1018.82 1019.28 1019.65 1019.93
1013.59 1013.06 1012.53 1012.02 1011.54 1011.10 1010.72 1010.44 1010.25 1010.19 1010.24 1010.38 1010.60 1010.84 1011.08 1011.29 1011.46 1011.60 1011.72 1011.84 1012.01 1012.25 1012.55 1012.92 1013.32 1013.74 1014.13 1014.46 1014.73 1014.93 1015.09 1015.24 1015.42 1015.67 1016.01 1016.44 1016.95 1017.50 1018.07 1018.61 1019.09 1019.48 1019.80
1014.15 1013.64 1013.13 1012.61 1012.11 1011.63 1011.20 1010.86 1010.60 1010.46 1010.43 1010.48 1010.59 1010.72 1010.84 1010.92 1010.98 1011.00 1011.03 1011.09 1011.21 1011.43 1011.76 1012.17 1012.65 1013.15 1013.64 1014.07 1014.43 1014.71 1014.93 1015.13 1015.34 1015.60 1015.93 1016.35 1016.84 1017.38 1017.94 1018.47 1018.96 1019.37 1019.70
1014.67 1014.20 1013.71 1013.20 1012.69 1012.19 1011.73 1011.35 1011.04 1010.84 1010.73 1010.69 1010.70 1010.72 1010.71 1010.67 1010.59 1010.49 1010.41 1010.37 1010.43 1010.61 1010.93 1011.36 1011.89 1012.47 1013.05 1013.59 1014.05 1014.44 1014.76 1015.04 1015.31 1015.61 1015.96 1016.39 1016.87 1017.40 1017.94 1018.46 1018.93 1019.34 1019.68
1015.12 1014.68 1014.22 1013.74 1013.24 1012.74 1012.28 1011.87 1011.53 1011.28 1011.11 1011.00 1010.91 1010.82 1010.70 1010.54 1010.33 1010.10 1009.90 1009.76 1009.73 1009.85 1010.12 1010.55 1011.11 1011.74 1012.40 1013.04 1013.62 1014.13 1014.56 1014.95 1015.31 1015.68 1016.09 1016.54 1017.04 1017.56 1018.08 1018.59 1019.04 1019.43 1019.76
1015.48 1015.09 1014.67 1014.22 1013.75 1013.27 1012.81 1012.40 1012.04 1011.76 1011.54 1011.36 1011.20 1011.02 1010.80 1010.52 1010.20 1009.85 1009.53 1009.28 1009.16 1009.20 1009.42 1009.82 1010.37 1011.03 1011.75 1012.47 1013.16 1013.79 1014.35 1014.86 1015.33 1015.80 1016.28 1016.78 1017.30 1017.84 1018.36 1018.85 1019.28 1019.66 1019.96
1015.79 1015.45 1015.08 1014.67 1014.24 1013.78 1013.34 1012.93 1012.56 1012.25 1011.99 1011.76 1011.53 1011.28 1010.97 1010.60 1010.18 1009.74 1009.32 1008.97 1008.76 1008.72 1008.88 1009.23 1009.76 1010.43 1011.18 1011.96 1012.73 1013.46 1014.14 1014.77 1015.36 1015.93 1016.50 1017.07 1017.64 1018.20 1018.73 1019.22 1019.64 1019.99 1020.28
1016.06 1015.78 1015.46 1015.11 1014.71 1014.29 1013.87 1013.45 1013.08 1012.74 1012.45 1012.17 1011.88 1011.57 1011.20 1010.76 1010.27 1009.76 1009.27 1008.86 1008.58 1008.48 1008.57 1008.87 1009.36 1010.01 1010.77 1011.58 1012.40 1013.21 1013.98 1014.70 1015.40 1016.06 1016.72 1017.36 1017.98 1018.58 1019.14 1019.63 1020.05 1020.40 1020.67
1016.33 1016.11 1015.85 1015.54 1015.19 1014.80 1014.38 1013.97 1013.58 1013.22 1012.89 1012.57 1012.24 1011.88 1011.46 1010.99 1010.47 1009.92 1009.40 1008.96 1008.64 1008.49 1008.54 1008.80 1009.25 1009.86 1010.60 1011.40 1012.24 1013.08 1013.90 1014.69 1015.45 1016.19 1016.91 1017.61 1018.29 1018.92 1019.51 1020.02 1020.46 1020.81 1021.08
1016.60 1016.44 1016.24 1015.98 1015.66 1015.29 1014.88 1014.47 1014.06 1013.67 1013.30 1012.94 1012.58 1012.19 1011.76 1011.27 1010.75 1010.22 1009.70 1009.27 1008.95 1008.79 1008.81 1009.03 1009.44 1010.01 1010.70 1011.47 1012.28 1013.11 1013.93 1014.74 1015.52 1016.29 1017.05 1017.78 1018.50 1019.17 1019.78 1020.33 1020.78 1021.15 1021.44
1016.86 1016.76 1016.60 1016.38 1016.08 1015.73 1015.33 1014.91 1014.48 1014.07 1013.67 1013.29 1012.91 1012.51 1012.08 1011.61 1011.12 1010.62 1010.16 1009.76 1009.47 1009.33 1009.35 1009.55 1009.92 1010.44 1011.07 1011.78 1012.53 1013.31 1014.08 1014.85 1015.61 1016.37 1017.12 1017.87 1018.59 1019.28 1019.92 1020.48 1020.97 1021.37 1021.68
Thickness
5741 5742 5744 5746 5747 5748 5748 5749 5749 5749 5749 5749 5749 5749 5750 5751 5752 5752 5753 5753 5753 5753 5752 5752 5751 5750 5750 5749 5748 5748 5747 5747 5746 5746 5745 5745 5744 5744 5743 5743 5743 5743 5743
5737 5739 5740 5742 5743 5744 5745 5746 5746 5746 5746 5746 5747 5748 5749 5750 5750 5751 5751 5752 5752 5751 5751 5751 5750 5749 5749 5748 5747 5746 5746 5745 5745 5744 5744 5743 5743 5742 5741 5741 5741 5741 5740
5731 5733 5735 5737 5739 5740 5741 5742 5743 5743 5743 5743 5744 5745 5747 5748 5749 5750 5750 5750 5750 5750 5750 5749 5749 5748 5747 5747 5746 5745 5744 5744 5743 5742 5742 5741 5740 5740 5739 5739 5739 5738 5738
5724 5727 5729 5732 5734 5735 5737 5737 5738 5737 5738 5739 5740 5742 5744 5745 5747 5748 5748 5748 5748 5748 5748 5747 5747 5747 5746 5745 5745 5744 5743 5742 5742 5741 5740 5739 5738 5738 5737 5737 5736 5736 5735
5716 5719 5722 5725 5727 5729 5731 5733 5733 5734 5733 5734 5735 5737 5740 5741 5743 5745 5745 5746 5746 5746 5746 5745 5745 5744 5744 5744 5743 5742 5742 5741 5740 5739 5738 5737 5737 5736 5735 5734 5734 5733 5733
5707 5711 5715 5718 5720 5722 5724 5726 5727 5729 5730 5729 5730 5732 5734 5737 5739 5741 5742 5743 5743 5743 5743 5742 5742 5742 5742 5741 5741 5741 5740 5739 5738 5737 5737 5736 5735 5734 5733 5732 5732 5731 5731
5698 5702 5706 5709 5713 5716 5718 5720 5721 5722 5723 5724 5722 5722 5725 5730 5732 5735 5737 5738 5739 5740 5740 5739 5739 5739 5739 5739 5738 5738 5738 5737 5736 5735 5735 5734 5733 5732 5731 5730 5729 5729 5728
5689 5693 5697 5701 5705 5708 5711 5714 5715 5716 5717 5719 5717 5713 5713 5717 5724 5730 5731 5732 5734 5736 5736 5736 5736 5736 5736 5736 5736 5735 5735 5735 5734 5733 5733 5732 5730 5729 5728 5727 5727 5726 5725
5681 5685 5688 5692 5696 5700 5704 5708 5710 5711 5711 5713 5716 5713 5709 5709 5714 5720 5724 5727 5729 5731 5732 5733 5733 5733 5733 5733 5733 5732 5732 5732 5731 5731 5730 5729 5728 5727 5726 5725 5724 5722 5722
5673 5677 5681 5684 5688 5693 5697 5701 5705 5707 5707 5707 5709 5713 5714 5713 5709 5709 5715 5720 5723 5725 5727 5729 5730 5730 5730 5730 5730 5729 5729 5729 5728 5728 5727 5726 5725 5724 5722 5721 5720 5719 5718
5666 5670 5674 5678 5681 5686 5690 5694 5698 5700 5702 5703 5704 5705 5706 5708 5709 5707 5706 5710 5714 5719 5722 5724 5725 5726 5726 5727 5727 5726 5726 5726 5725 5725 5724 5723 5722 5721 5719 5718 5716 5715 5714
5660 5664 5667 5671 5675 5679 5683 5687 5691 5694 5697 5699 5701 5703 5704 5704 5704 5704 5703 5704 5706 5711 5716 5718 5720 5722 5723 5723 5723 5723 5723 5722 5722 5721 5720 5719 5718 5717 5715 5714 5712 5711 5710
5654 5657 5661 5665 5669 5673 5677 5681 5684 5687 5691 5693 5696 5698 5701 5703 5705 5704 5702 5700 5701 5704 5708 5711 5715 5717 5718 5719 5719 5719 5719 5718 5718 5717 5716 5715 5714 5712 5711 5709 5708 5706 5705
5649 5652 5656 5660 5664 5668 5672 5675 5678 5681 5684 5687 5690 5693 5695 5697 5700 5701 5701 5698 5694 5695 5699 5704 5708 5711 5713 5714 5715 5715 5714 5714 5714 5713 5712 5711 5709 5707 5705 5704 5703 5701 5700
5645 5648 5652 5655 5659 5663 5666 5669 5672 5675 5678 5681 5684 5687 5689 5692 5694 5697 5698 5698 5694 5690 5692 5697 5701 5705 5706 5708 5709 5709 5709 5709 5709 5708 5707 5705 5703 5702 5699 5698 5696 5695 5694
5641 5644 5647 5650 5654 5657 5661 5663 5666 5669 5671 5675 5678 5680 5683 5685 5688 5691 5692 5693 5694 5692 5689 5692 5695 5698 5700 5702 5702 5703 5703 5703 5703 5702 5700 5698 5697 5695 5693 5691 5690 5688 5687
5638 5640 5643 5645 5648 5651 5654 5658 5661 5663 5665 5668 5671 5674 5676 5679 5682 5683 5686 5687 5688 5689 5686 5686 5689 5691 5692 5694 5695 5695 5696 5696 5696 5695 5694 5692 5690 5688 5687 5685 5683 5681 5680
5635 5636 5639 5641 5643 5646 5649 5652 5654 5657 5660 5662 5665 5667 5670 5673 5675 5676 5678 5681 5682 5684 5683 5681 5681 5683 5684 5686 5687 5687 5688 5688 5688 5688 5686 5685 5683 5681 5680 5678 5676 5674 5672
5631 5633 5635 5637 5638 5640 5643 5646 5649 5651 5654 5656 5659 5662 5664 5666 5668 5670 5672 5675 5677 5678 5679 5677 5675 5676 5677 5678 5678 5679 5679 5679 5679 5678 5677 5676 5675 5674 5673 5671 5669 5667 5665
5628 5629 5631 5633 5634 5636 5639 5641 5644 5646 5649 5651 5654 5657 5659 5661 5663 5664 5666 5668 5670 5671 5671 5671 5670 5669 5670 5671 5671 5671 5670 5669 5669 5669 5668 5667 5666 5666 5665 5663 5661 5659 5657
5627 5627 5628 5630 5631 5633 5636 5638 5639 5641 5643 5645 5647 5651 5653 5656 5659 5661 5663 5664 5665 5665 5664 5664 5663 5663 5663 5664 5664 5664 5663 5661 5659 5659 5658 5657 5656 5656 5655 5654 5653 5651 5649
5624 5625 5626 5627 5628 5630 5632 5634 5636 5636 5638 5639 5641 5644 5648 5651 5654 5656 5659 5660 5662 5661 5659 5659 5658 5659 5659 5660 5659 5659 5656 5654 5651 5649 5650 5646 5647 5646 5645 5645 5645 5643 5642
5623 5622 5623 5624 5624 5625 5628 5630 5632 5632 5633 5634 5635 5638 5641 5645 5647 5650 5652 5653 5655 5657 5657 5657 5656 5656 5656 5657 5655 5652 5651 5649 5647 5643 5642 5638 5637 5636 5636 5636 5636 5636 5634
5621 5620 5620 5621 5621 5622 5624 5626 5627 5627 5628 5629 5631 5633 5636 5638 5642 5644 5645 5645 5646 5648 5651 5653 5653 5653 5654 5653 5652 5650 5646 5642 5639 5636 5637 5632 5629 5628 5627 5627 5628 5628 5627
5621 5619 5618 5618 5618 5618 5620 5622 5623 5623 5623 5624 5626 5629 5631 5634 5638 5640 5640 5640 5640 5641 5644 5646 5647 5648 5648 5647 5646 5643 5640 5638 5633 5630 5629 5628 5623 5621 5620 5619 5619 5620 5619
5620 5619 5617 5616 5615 5615 5617 5618 5619 5619 5618 5619 5622 5625 5628 5631 5633 5635 5636 5636 5635 5636 5638 5638 5639 5640 5640 5640 5640 5640 5639 5635 5631 5627 5625 5624 5620 5618 5615 5613 5613 5613 5613